Weather in Krasnogvardejskoye

Russia / Republic of Crimea     45°29′41″N   34°17′40″E
temp.,
°C
wind,
m/s
gust,
m/s
humid.,
%
clouds,
%
prec.,
mm/h
press.,
hPa
HPBL,
m
23 january, sat
sat2300:00+4s478666 0.0 1021135
03:00+5s4108582 0.0 1020175
06:00+5s4108774 0.0 1018180
09:00+5sse4107989 0.0 1019190
12:00+10ssw51280100 0.0 1018753
15:00+12sw8127184 0.0 1016943
18:00+9ssw513764 0.0 1017315
21:00+8s4117412 0.0 1017220
24 january, sun
sun2400:00+7sse4578100 0.0 101785
03:00+6se348188 0.0 101665
06:00+7se4673100 0.0 1015100
09:00+6se4971100 0.0 1015154
12:00+11se61057100 0.0 1014470
15:00+13sw8114898 0.0 10121292
18:00+8se447699 0.0 101277
21:00+9s8157295 0.4 1012531
25 january, mon
mon2500:00+8se61171100 0.3 1012218
03:00+9s6136693 0.1 1012368
06:00+7sse5108037 0.0 1011197
09:00+8sse4107399 0.0 1011177
12:00+12sse4964100 0.0 1010399
15:00+13sse71252100 0.0 10071271
18:00+10sse41280100 0.6 1005810
21:00+10s91979100 3.6 10051253
26 january, tue
tue2600:00+8sw9167091 1.3 10071041
03:00+6sw5136757 1.3 1009534
06:00+4ssw368127 0.0 1011148
09:00+5ese4668100 0.0 1009123
12:00+10se71379100 0.5 1007500
15:00+12s61268100 0.6 10051212
18:00+10ssw51380100 0.2 1005557
21:00+8s3791100 0.2 1006225
27 january, wed
wed2700:00+8se1292100 0.8 100430
03:00+5n6994100 3.8 1002311
06:00+9se61479100 0.0 1001365
09:00+3nw1166100 0.0 101522
12:000nnw71299100 8.1 1002597
15:00+12ssw61075100 0.3 997819
18:00+1w498495 0.1 1007586
21:00+3nne5957100 0.1 1010553